Time,TemperatureF,DewpointF,PressureIn,WindDirection,WindDirectionDegrees,WindSpeedMPH,WindSpeedGustMPH,Humidity,HourlyPrecipIn,Conditions,Clouds,dailyrainin,SoftwareType,DateUTC
2013-02-23 00:00:00,36.0,21.8,30.09,North,353,3.5,3.5,56,0.00,CLR,,0.00,WeatherDisplay:10.37,2013-02-23 06:00:00,
2013-02-23 00:05:00,35.6,21.9,30.09,North,0,3.5,3.5,57,0.00,CLR,,0.00,WeatherDisplay:10.37,2013-02-23 06:05:00,
2013-02-23 00:10:00,35.6,21.9,30.09,North,353,3.5,3.5,57,0.00,CLR,,0.00,WeatherDisplay:10.37,2013-02-23 06:10:00,
2013-02-23 00:15:00,35.4,22.1,30.09,North,353,3.5,3.5,58,0.00,CLR,,0.00,WeatherDisplay:10.37,2013-02-23 06:15:00,
2013-02-23 00:20:00,35.6,22.3,30.09,North,349,5.8,5.8,58,0.00,CLR,,0.00,WeatherDisplay:10.37,2013-02-23 06:20:00,
2013-02-23 00:25:00,35.6,21.9,30.09,North,0,3.5,3.5,57,0.00,CLR,,0.00,WeatherDisplay:10.37,2013-02-23 06:25:00,
2013-02-23 00:30:00,35.6,22.3,30.09,NNW,348,6.3,6.3,58,0.00,CLR,,0.00,WeatherDisplay:10.37,2013-02-23 06:30:00,
2013-02-23 00:35:00,35.4,22.1,30.09,North,353,4.6,0.0,58,0.00,CLR,,0.00,WeatherDisplay:10.37,2013-02-23 06:35:00,
2013-02-23 00:40:00,35.4,22.1,30.09,North,0,3.5,3.5,58,0.00,CLR,,0.00,WeatherDisplay:10.37,2013-02-23 06:40:00,
2013-02-23 00:46:00,35.4,22.1,30.09,NNW,343,3.5,3.5,58,0.00,CLR,,0.00,WeatherDisplay:10.37,2013-02-23 06:46:00,
2013-02-23 00:51:00,35.4,21.7,30.09,North,349,3.5,3.5,57,0.00,CLR,,0.00,WeatherDisplay:10.37,2013-02-23 06:51:00,
2013-02-23 00:56:00,35.4,21.7,30.09,North,353,5.8,5.8,57,0.00,CLR,,0.00,WeatherDisplay:10.37,2013-02-23 06:56:00,
2013-02-23 01:01:00,35.2,21.5,30.09,North,353,3.5,3.5,57,0.00,CLR,,0.00,WeatherDisplay:10.37,2013-02-23 07:01:00,
2013-02-23 01:06:00,35.1,21.3,30.09,NNW,348,2.3,0.0,57,0.00,CLR,,0.00,WeatherDisplay:10.37,2013-02-23 07:06:00,
2013-02-23 01:11:00,34.9,21.2,30.09,NNW,348,3.5,0.0,57,0.00,CLR,,0.00,WeatherDisplay:10.37,2013-02-23 07:11:00,
2013-02-23 01:16:00,34.7,21.4,30.09,NNW,339,3.5,3.5,58,0.00,CLR,,0.00,WeatherDisplay:10.37,2013-02-23 07:16:00,
2013-02-23 01:21:00,34.7,21.4,30.09,North,350,5.8,5.8,58,0.00,CLR,,0.00,WeatherDisplay:10.37,2013-02-23 07:21:00,
2013-02-23 01:26:00,34.7,21.4,30.09,North,353,2.3,2.3,58,0.00,CLR,,0.00,WeatherDisplay:10.37,2013-02-23 07:26:00,
2013-02-23 01:31:00,34.5,21.7,30.09,NNW,346,4.0,4.0,59,0.00,CLR,,0.00,WeatherDisplay:10.37,2013-02-23 07:31:00,
2013-02-23 01:36:00,34.7,21.8,30.06,North,353,3.5,3.5,59,0.00,CLR,,0.00,WeatherDisplay:10.37,2013-02-23 07:36:00,
2013-02-23 01:41:00,34.5,21.7,30.06,NNW,336,3.5,3.5,59,0.00,CLR,,0.00,WeatherDisplay:10.37,2013-02-23 07:41:00,
2013-02-23 01:46:00,34.5,21.7,30.06,NNW,334,3.5,3.5,59,0.00,CLR,,0.00,WeatherDisplay:10.37,2013-02-23 07:46:00,
2013-02-23 01:51:00,34.2,21.3,30.06,NNW,332,0.0,0.0,59,0.00,CLR,,0.00,WeatherDisplay:10.37,2013-02-23 07:51:00,
2013-02-23 01:56:00,34.0,21.1,30.06,NNW,338,0.0,0.0,59,0.00,CLR,,0.00,WeatherDisplay:10.37,2013-02-23 07:56:00,
2013-02-23 02:01:00,33.8,21.0,30.06,NNW,338,2.3,0.0,59,0.00,CLR,,0.00,WeatherDisplay:10.37,2013-02-23 08:01:00,
2013-02-23 02:06:00,33.8,21.4,30.06,NNW,340,3.5,3.5,60,0.00,CLR,,0.00,WeatherDisplay:10.37,2013-02-23 08:06:00,
2013-02-23 02:11:00,33.6,21.6,30.06,NNW,340,2.3,0.0,61,0.00,CLR,,0.00,WeatherDisplay:10.37,2013-02-23 08:11:00,
2013-02-23 02:16:00,33.4,21.4,30.06,NNW,340,2.3,0.0,61,0.00,CLR,,0.00,WeatherDisplay:10.37,2013-02-23 08:16:00,
2013-02-23 02:21:00,33.3,21.6,30.06,NNW,340,2.3,0.0,62,0.00,CLR,,0.00,WeatherDisplay:10.37,2013-02-23 08:21:00,
2013-02-23 02:26:00,33.3,21.6,30.06,NNW,340,3.5,0.0,62,0.00,CLR,,0.00,WeatherDisplay:10.37,2013-02-23 08:26:00,
2013-02-23 02:31:00,33.3,22.0,30.06,NNW,341,3.5,3.5,63,0.00,CLR,,0.00,WeatherDisplay:10.37,2013-02-23 08:31:00,
2013-02-23 02:36:00,33.1,21.8,30.06,NNW,342,2.3,0.0,63,0.00,CLR,,0.00,WeatherDisplay:10.37,2013-02-23 08:36:00,
2013-02-23 02:41:00,32.9,21.7,30.06,NNW,342,2.7,0.0,63,0.00,CLR,,0.00,WeatherDisplay:10.37,2013-02-23 08:41:00,
2013-02-23 02:46:00,32.7,21.9,30.06,North,349,3.5,3.5,64,0.00,CLR,,0.00,WeatherDisplay:10.37,2013-02-23 08:46:00,
2013-02-23 02:51:00,32.9,22.0,30.03,North,0,3.5,3.6,64,0.00,CLR,,0.00,WeatherDisplay:10.37,2013-02-23 08:51:00,
2013-02-23 02:56:00,32.7,21.9,30.03,North,2,3.5,3.5,64,0.00,CLR,,0.00,WeatherDisplay:10.37,2013-02-23 08:56:00,
2013-02-23 03:01:00,32.7,22.2,30.03,NNW,341,3.5,3.5,65,0.00,CLR,,0.00,WeatherDisplay:10.37,2013-02-23 09:01:00,
2013-02-23 03:06:00,32.7,22.2,30.03,North,349,3.5,3.5,65,0.00,CLR,,0.00,WeatherDisplay:10.37,2013-02-23 09:06:00,
2013-02-23 03:11:00,32.7,22.2,30.03,North,353,3.5,3.5,65,0.00,CLR,,0.00,WeatherDisplay:10.37,2013-02-23 09:11:00,
2013-02-23 03:16:00,32.7,22.2,30.03,NNW,345,3.5,3.5,65,0.00,CLR,,0.00,WeatherDisplay:10.37,2013-02-23 09:16:00,
2013-02-23 03:21:00,32.7,22.2,30.03,North,353,3.5,3.5,65,0.00,CLR,,0.00,WeatherDisplay:10.37,2013-02-23 09:21:00,
2013-02-23 03:26:00,32.5,22.1,30.03,North,357,3.5,3.5,65,0.00,CLR,,0.00,WeatherDisplay:10.37,2013-02-23 09:26:00,
2013-02-23 03:31:00,32.5,22.1,30.03,North,350,3.6,3.6,65,0.00,CLR,,0.00,WeatherDisplay:10.37,2013-02-23 09:31:00,
2013-02-23 03:36:00,32.5,22.1,30.03,NNW,346,3.5,3.5,65,0.00,CLR,,0.00,WeatherDisplay:10.37,2013-02-23 09:36:00,
2013-02-23 03:41:00,32.4,21.9,30.03,North,0,3.5,3.5,65,0.00,CLR,,0.00,WeatherDisplay:10.37,2013-02-23 09:41:00,
2013-02-23 03:46:00,32.4,21.9,30.03,North,357,4.6,4.6,65,0.00,CLR,,0.00,WeatherDisplay:10.37,2013-02-23 09:46:00,
2013-02-23 03:51:00,32.2,21.7,30.03,North,353,4.9,4.9,65,0.00,CLR,,0.00,WeatherDisplay:10.37,2013-02-23 09:51:00,
2013-02-23 03:56:00,32.2,22.1,30.03,NNW,346,4.6,4.6,66,0.00,CLR,,0.00,WeatherDisplay:10.37,2013-02-23 09:56:00,
2013-02-23 04:01:00,32.2,22.1,30.03,North,353,3.5,3.5,66,0.00,CLR,,0.00,WeatherDisplay:10.37,2013-02-23 10:01:00,
2013-02-23 04:06:00,32.0,21.9,30.03,North,0,3.5,3.5,66,0.00,CLR,,0.00,WeatherDisplay:10.37,2013-02-23 10:06:00,
2013-02-23 04:11:00,31.8,21.7,30.03,North,349,4.6,4.6,66,0.00,CLR,,0.00,WeatherDisplay:10.37,2013-02-23 10:11:00,
2013-02-23 04:16:00,31.8,21.7,30.03,NNW,339,3.5,3.5,66,0.00,CLR,,0.00,WeatherDisplay:10.37,2013-02-23 10:16:00,
2013-02-23 04:21:00,31.8,22.1,30.03,NNW,348,3.5,3.5,67,0.00,CLR,,0.00,WeatherDisplay:10.37,2013-02-23 10:21:00,
2013-02-23 04:26:00,31.8,22.1,30.03,NNW,348,3.5,3.5,67,0.00,CLR,,0.00,WeatherDisplay:10.37,2013-02-23 10:26:00,
2013-02-23 04:31:00,31.8,22.1,30.03,North,350,5.8,5.8,67,0.00,CLR,,0.00,WeatherDisplay:10.37,2013-02-23 10:31:00,
2013-02-23 04:36:00,31.8,22.1,30.03,North,353,3.5,3.5,67,0.00,CLR,,0.00,WeatherDisplay:10.37,2013-02-23 10:36:00,
2013-02-23 04:41:00,31.8,22.1,30.03,NNW,345,4.6,4.6,67,0.00,CLR,,0.00,WeatherDisplay:10.37,2013-02-23 10:41:00,
2013-02-23 04:46:00,31.8,22.1,30.03,NNW,345,5.8,5.8,67,0.00,CLR,,0.00,WeatherDisplay:10.37,2013-02-23 10:46:00,
2013-02-23 04:51:00,31.6,21.9,30.03,North,353,3.6,3.6,67,0.00,CLR,,0.00,WeatherDisplay:10.37,2013-02-23 10:51:00,
2013-02-23 04:56:00,32.0,22.3,30.03,NNW,339,6.9,6.9,67,0.00,CLR,,0.00,WeatherDisplay:10.37,2013-02-23 10:56:00,
2013-02-23 05:01:00,31.8,22.1,30.03,North,353,5.8,5.8,67,0.00,CLR,,0.00,WeatherDisplay:10.37,2013-02-23 11:01:00,
2013-02-23 05:06:00,31.6,21.9,30.03,NNW,341,4.0,4.0,67,0.00,CLR,,0.00,WeatherDisplay:10.37,2013-02-23 11:06:00,
2013-02-23 05:11:00,31.5,21.8,30.03,North,353,4.6,4.6,67,0.00,CLR,,0.00,WeatherDisplay:10.37,2013-02-23 11:11:00,
2013-02-23 05:16:00,31.3,21.9,30.03,North,1,3.6,3.6,68,0.00,CLR,,0.00,WeatherDisplay:10.37,2013-02-23 11:16:00,
2013-02-23 05:21:00,31.1,21.8,30.03,North,353,3.5,3.5,68,0.00,CLR,,0.00,WeatherDisplay:10.37,2013-02-23 11:21:00,
2013-02-23 05:26:00,30.7,21.4,30.03,North,0,3.5,0.0,68,0.00,CLR,,0.00,WeatherDisplay:10.37,2013-02-23 11:26:00,
2013-02-23 05:31:00,30.4,21.4,30.03,North,5,2.3,0.0,69,0.00,CLR,,0.00,WeatherDisplay:10.37,2013-02-23 11:31:00,
2013-02-23 05:36:00,30.2,21.6,30.06,North,5,0.0,0.0,70,0.00,CLR,,0.00,WeatherDisplay:10.37,2013-02-23 11:36:00,
2013-02-23 05:41:00,30.0,21.4,30.06,North,5,0.0,0.0,70,0.00,CLR,,0.00,WeatherDisplay:10.37,2013-02-23 11:41:00,
2013-02-23 05:46:00,29.8,21.2,30.06,North,5,2.3,0.0,70,0.00,CLR,,0.00,WeatherDisplay:10.37,2013-02-23 11:46:00,
2013-02-23 05:51:00,29.8,21.6,30.03,North,4,0.0,0.0,71,0.00,CLR,,0.00,WeatherDisplay:10.37,2013-02-23 11:51:00,
2013-02-23 05:57:00,29.5,21.2,30.03,North,4,0.0,0.0,71,0.00,CLR,,0.00,WeatherDisplay:10.37,2013-02-23 11:57:00,
2013-02-23 06:02:00,29.1,20.9,30.03,North,4,0.0,0.0,71,0.00,CLR,,0.00,WeatherDisplay:10.37,2013-02-23 12:02:00,
2013-02-23 06:07:00,29.1,21.2,30.06,North,4,0.0,0.0,72,0.00,CLR,,0.00,WeatherDisplay:10.37,2013-02-23 12:07:00,
2013-02-23 06:12:00,29.3,21.4,30.06,North,4,0.0,0.0,72,0.00,CLR,,0.00,WeatherDisplay:10.37,2013-02-23 12:12:00,
2013-02-23 06:17:00,28.8,20.9,30.06,North,4,0.0,0.0,72,0.00,CLR,,0.00,WeatherDisplay:10.37,2013-02-23 12:17:00,
2013-02-23 06:22:00,28.6,20.7,30.06,North,4,0.0,0.0,72,0.00,CLR,,0.00,WeatherDisplay:10.37,2013-02-23 12:22:00,
2013-02-23 06:27:00,28.6,21.0,30.06,North,4,0.0,0.0,73,0.00,CLR,,0.00,WeatherDisplay:10.37,2013-02-23 12:27:00,
2013-02-23 06:32:00,28.6,21.0,30.06,North,4,0.0,0.0,73,0.00,CLR,,0.00,WeatherDisplay:10.37,2013-02-23 12:32:00,
2013-02-23 06:37:00,28.2,21.0,30.06,North,4,0.0,0.0,74,0.00,CLR,,0.00,WeatherDisplay:10.37,2013-02-23 12:37:00,
2013-02-23 06:42:00,28.0,20.8,30.06,North,4,0.0,0.0,74,0.00,CLR,,0.00,WeatherDisplay:10.37,2013-02-23 12:42:00,
2013-02-23 06:47:00,28.0,21.1,30.06,North,4,0.0,0.0,75,0.00,CLR,,0.00,WeatherDisplay:10.37,2013-02-23 12:47:00,
2013-02-23 06:52:00,27.9,21.0,30.06,North,4,0.0,0.0,75,0.00,CLR,,0.00,WeatherDisplay:10.37,2013-02-23 12:52:00,
2013-02-23 06:57:00,27.9,21.0,30.06,North,4,0.0,0.0,75,0.00,CLR,,0.00,WeatherDisplay:10.37,2013-02-23 12:57:00,
2013-02-23 07:02:00,27.9,21.3,30.06,North,4,0.0,0.0,76,0.00,CLR,,0.00,WeatherDisplay:10.37,2013-02-23 13:02:00,
2013-02-23 07:07:00,27.9,21.3,30.06,North,4,0.0,0.0,76,0.00,CLR,,0.00,WeatherDisplay:10.37,2013-02-23 13:07:00,
2013-02-23 07:12:00,28.0,21.4,30.06,North,4,0.0,0.0,76,0.00,CLR,,0.00,WeatherDisplay:10.37,2013-02-23 13:12:00,
2013-02-23 07:17:00,28.0,21.4,30.06,North,4,0.0,0.0,76,0.00,CLR,,0.00,WeatherDisplay:10.37,2013-02-23 13:17:00,
2013-02-23 07:22:00,28.2,21.6,30.06,North,4,0.0,0.0,76,0.00,CLR,,0.00,WeatherDisplay:10.37,2013-02-23 13:22:00,
2013-02-23 07:27:00,28.4,21.8,30.06,North,6,2.3,0.0,76,0.00,CLR,,0.00,WeatherDisplay:10.37,2013-02-23 13:27:00,
2013-02-23 07:32:00,28.6,22.0,30.06,North,7,2.3,0.0,76,0.00,CLR,,0.00,WeatherDisplay:10.37,2013-02-23 13:32:00,
2013-02-23 07:37:00,28.9,22.3,30.06,North,7,2.2,0.0,76,0.00,CLR,,0.00,WeatherDisplay:10.37,2013-02-23 13:37:00,
2013-02-23 07:42:00,29.1,22.5,30.06,North,8,3.5,0.0,76,0.00,CLR,,0.00,WeatherDisplay:10.37,2013-02-23 13:42:00,
2013-02-23 07:47:00,29.5,22.8,30.06,North,8,3.5,0.0,76,0.00,CLR,,0.00,WeatherDisplay:10.37,2013-02-23 13:47:00,
2013-02-23 07:52:00,29.8,23.2,30.06,North,10,2.7,0.0,76,0.00,CLR,,0.00,WeatherDisplay:10.37,2013-02-23 13:52:00,
2013-02-23 07:57:00,30.2,23.5,30.06,NNE,14,3.5,0.0,76,0.00,CLR,,0.00,WeatherDisplay:10.37,2013-02-23 13:57:00,
2013-02-23 08:02:00,30.6,23.6,30.06,NNE,24,2.3,0.0,75,0.00,CLR,,0.00,WeatherDisplay:10.37,2013-02-23 14:02:00,
2013-02-23 08:07:00,30.9,23.9,30.06,NNE,24,0.0,0.0,75,0.00,CLR,,0.00,WeatherDisplay:10.37,2013-02-23 14:07:00,
2013-02-23 08:12:00,31.1,24.1,30.06,NNE,24,0.0,0.0,75,0.00,CLR,,0.00,WeatherDisplay:10.37,2013-02-23 14:12:00,
2013-02-23 08:17:00,31.5,24.1,30.06,NNE,24,0.0,0.0,74,0.00,CLR,,0.00,WeatherDisplay:10.37,2013-02-23 14:17:00,
2013-02-23 08:22:00,32.2,24.8,30.09,NNE,18,3.5,3.5,74,0.00,CLR,,0.00,WeatherDisplay:10.37,2013-02-23 14:22:00,
2013-02-23 08:27:00,32.7,25.0,30.09,North,0,3.5,3.5,73,0.00,CLR,,0.00,WeatherDisplay:10.37,2013-02-23 14:27:00,
2013-02-23 08:32:00,32.9,24.5,30.09,NNW,337,3.5,3.5,71,0.00,CLR,,0.00,WeatherDisplay:10.37,2013-02-23 14:32:00,
2013-02-23 08:37:00,33.4,25.0,30.09,NNW,337,3.5,3.5,71,0.00,CLR,,0.00,WeatherDisplay:10.37,2013-02-23 14:37:00,
2013-02-23 08:42:00,33.8,24.7,30.09,NNW,344,3.5,0.0,69,0.00,CLR,,0.00,WeatherDisplay:10.37,2013-02-23 14:42:00,
2013-02-23 08:47:00,34.0,24.5,30.09,NNE,18,2.3,0.0,68,0.00,CLR,,0.00,WeatherDisplay:10.37,2013-02-23 14:47:00,
2013-02-23 08:52:00,34.3,24.9,30.09,North,5,3.5,3.5,68,0.00,CLR,,0.00,WeatherDisplay:10.37,2013-02-23 14:52:00,
2013-02-23 08:57:00,34.9,25.0,30.09,NNW,328,3.5,3.5,67,0.00,CLR,,0.00,WeatherDisplay:10.37,2013-02-23 14:57:00,
2013-02-23 09:02:00,35.2,24.6,30.09,NNW,332,3.5,0.0,65,0.00,CLR,,0.00,WeatherDisplay:10.37,2013-02-23 15:02:00,
2013-02-23 09:07:00,35.6,24.2,30.09,North,0,3.6,0.0,63,0.00,CLR,,0.00,WeatherDisplay:10.37,2013-02-23 15:07:00,
2013-02-23 09:12:00,35.8,24.0,30.09,NNW,346,3.5,3.6,62,0.00,CLR,,0.00,WeatherDisplay:10.37,2013-02-23 15:12:00,
2013-02-23 09:17:00,36.1,24.0,30.09,North,357,3.5,3.5,61,0.00,CLR,,0.00,WeatherDisplay:10.37,2013-02-23 15:17:00,
2013-02-23 09:22:00,36.3,23.8,30.09,NNE,30,3.5,3.6,60,0.00,CLR,,0.00,WeatherDisplay:10.37,2013-02-23 15:22:00,
2013-02-23 09:27:00,36.9,24.3,30.09,North,5,5.8,5.8,60,0.00,CLR,,0.00,WeatherDisplay:10.37,2013-02-23 15:27:00,
2013-02-23 09:32:00,37.4,24.4,30.09,NNE,15,3.5,3.6,59,0.00,CLR,,0.00,WeatherDisplay:10.37,2013-02-23 15:32:00,
2013-02-23 09:37:00,37.8,24.3,30.09,North,357,3.5,3.5,58,0.00,CLR,,0.00,WeatherDisplay:10.37,2013-02-23 15:37:00,
2013-02-23 09:42:00,38.1,24.2,30.09,North,11,3.5,3.5,57,0.00,CLR,,0.00,WeatherDisplay:10.37,2013-02-23 15:42:00,
2013-02-23 09:47:00,38.5,24.6,30.09,North,0,3.5,0.0,57,0.00,CLR,,0.00,WeatherDisplay:10.37,2013-02-23 15:47:00,
2013-02-23 09:52:00,38.7,24.3,30.09,North,357,3.5,3.5,56,0.00,CLR,,0.00,WeatherDisplay:10.37,2013-02-23 15:52:00,
2013-02-23 09:57:00,38.8,24.0,30.09,North,357,5.8,5.8,55,0.00,CLR,,0.00,WeatherDisplay:10.37,2013-02-23 15:57:00,
2013-02-23 10:02:00,39.4,24.1,30.09,NNE,14,0.0,0.0,54,0.00,CLR,,0.00,WeatherDisplay:10.37,2013-02-23 16:02:00,
2013-02-23 10:07:00,39.9,24.2,30.09,NNE,30,4.0,4.0,53,0.00,CLR,,0.00,WeatherDisplay:10.37,2013-02-23 16:07:00,
2013-02-23 10:12:00,40.5,24.2,30.09,NNE,12,6.9,6.9,52,0.00,CLR,,0.00,WeatherDisplay:10.37,2013-02-23 16:12:00,
2013-02-23 10:17:00,40.6,23.9,30.09,North,357,3.5,3.5,51,0.00,CLR,,0.00,WeatherDisplay:10.37,2013-02-23 16:17:00,
2013-02-23 10:22:00,41.2,23.9,30.09,North,357,5.8,5.8,50,0.00,CLR,,0.00,WeatherDisplay:10.37,2013-02-23 16:22:00,
2013-02-23 10:27:00,41.9,24.6,30.09,NNE,24,4.6,4.6,50,0.00,CLR,,0.00,WeatherDisplay:10.37,2013-02-23 16:27:00,
2013-02-23 10:32:00,42.3,24.9,30.09,NNE,28,3.5,0.0,50,0.00,CLR,,0.00,WeatherDisplay:10.37,2013-02-23 16:32:00,
2013-02-23 10:37:00,42.8,24.4,30.09,NNE,17,4.6,4.6,48,0.00,CLR,,0.00,WeatherDisplay:10.37,2013-02-23 16:37:00,
2013-02-23 10:42:00,43.5,25.6,30.09,NNE,28,3.5,3.5,49,0.00,CLR,,0.00,WeatherDisplay:10.37,2013-02-23 16:42:00,
2013-02-23 10:47:00,44.2,25.8,30.09,NNE,17,3.5,3.6,48,0.00,CLR,,0.00,WeatherDisplay:10.37,2013-02-23 16:47:00,
2013-02-23 10:52:00,45.0,25.4,30.09,North,7,3.5,3.5,46,0.00,CLR,,0.00,WeatherDisplay:10.37,2013-02-23 16:52:00,
2013-02-23 10:57:00,45.0,24.9,30.09,SE,140,5.8,5.8,45,0.00,CLR,,0.00,WeatherDisplay:10.37,2013-02-23 16:57:00,
2013-02-23 11:02:00,45.0,23.8,30.09,North,1,5.8,5.8,43,0.00,SCT,,0.00,WeatherDisplay:10.37,2013-02-23 17:02:00,
2013-02-23 11:07:00,45.0,24.3,30.06,NNW,338,4.0,4.0,44,0.00,SCT,,0.00,WeatherDisplay:10.37,2013-02-23 17:07:00,
2013-02-23 11:12:00,45.0,24.9,30.06,NNE,24,5.8,5.8,45,0.00,SCT,,0.00,WeatherDisplay:10.37,2013-02-23 17:12:00,
2013-02-23 11:17:00,45.3,25.2,30.06,NE,42,6.9,6.9,45,0.00,SCT,,0.00,WeatherDisplay:10.37,2013-02-23 17:17:00,
2013-02-23 11:22:00,46.4,25.6,30.09,NE,43,4.6,4.6,44,0.00,SCT,,0.00,WeatherDisplay:10.37,2013-02-23 17:22:00,
2013-02-23 11:27:00,46.9,25.0,30.09,NE,40,5.8,5.8,42,0.00,SCT,,0.00,WeatherDisplay:10.37,2013-02-23 17:27:00,
2013-02-23 11:33:00,47.3,24.8,30.09,North,11,3.5,3.6,41,0.00,CLR,,0.00,WeatherDisplay:10.37,2013-02-23 17:33:00,
2013-02-23 11:38:00,47.3,24.2,30.09,North,11,5.8,5.8,40,0.00,CLR,,0.00,WeatherDisplay:10.37,2013-02-23 17:38:00,
2013-02-23 11:43:00,47.7,23.3,30.09,NE,37,3.5,3.6,38,0.00,CLR,,0.00,WeatherDisplay:10.37,2013-02-23 17:43:00,
2013-02-23 11:48:00,47.7,23.9,30.09,NNE,16,5.8,5.8,39,0.00,CLR,,0.00,WeatherDisplay:10.37,2013-02-23 17:48:00,
2013-02-23 11:53:00,47.7,23.3,30.09,NNE,16,3.5,3.5,38,0.00,CLR,,0.00,WeatherDisplay:10.37,2013-02-23 17:53:00,
2013-02-23 11:58:00,48.2,23.1,30.09,North,357,5.8,5.8,37,0.00,CLR,,0.00,WeatherDisplay:10.37,2013-02-23 17:58:00,
2013-02-23 12:03:00,48.2,23.7,30.09,South,178,3.6,0.0,38,0.00,CLR,,0.00,WeatherDisplay:10.37,2013-02-23 18:03:00,
2013-02-23 12:08:00,48.2,23.7,30.09,North,357,3.5,3.5,38,0.00,CLR,,0.00,WeatherDisplay:10.37,2013-02-23 18:08:00,
2013-02-23 12:13:00,48.7,24.2,30.09,NNE,25,2.3,2.3,38,0.00,CLR,,0.00,WeatherDisplay:10.37,2013-02-23 18:13:00,
2013-02-23 12:18:00,48.7,24.2,30.09,NNW,341,5.8,5.8,38,0.00,CLR,,0.00,WeatherDisplay:10.37,2013-02-23 18:18:00,
2013-02-23 12:23:00,48.7,24.2,30.06,NNE,18,3.5,3.6,38,0.00,CLR,,0.00,WeatherDisplay:10.37,2013-02-23 18:23:00,
2013-02-23 12:28:00,48.9,23.8,30.06,NE,45,3.5,3.5,37,0.00,CLR,,0.00,WeatherDisplay:10.37,2013-02-23 18:28:00,
2013-02-23 12:33:00,48.9,23.8,30.06,NNE,14,6.3,6.3,37,0.00,SCT,,0.00,WeatherDisplay:10.37,2013-02-23 18:33:00,
2013-02-23 12:38:00,48.9,23.8,30.06,South,186,3.5,3.5,37,0.00,SCT,,0.00,WeatherDisplay:10.37,2013-02-23 18:38:00,
2013-02-23 12:43:00,48.7,23.6,30.06,SW,225,3.5,3.5,37,0.00,SCT,,0.00,WeatherDisplay:10.37,2013-02-23 18:43:00,
2013-02-23 12:48:00,48.0,23.0,30.06,North,357,5.8,5.8,37,0.00,BKN,,0.00,WeatherDisplay:10.37,2013-02-23 18:48:00,
2013-02-23 12:53:00,47.5,19.8,30.06,NNE,18,3.5,3.5,33,0.00,BKN,,0.00,WeatherDisplay:10.37,2013-02-23 18:53:00,
2013-02-23 12:58:00,47.5,20.5,30.06,NNE,26,5.8,5.8,34,0.00,BKN,,0.00,WeatherDisplay:10.37,2013-02-23 18:58:00,
2013-02-23 13:03:00,47.3,19.6,30.06,NNW,348,8.1,8.1,33,0.00,BKN,,0.00,WeatherDisplay:10.37,2013-02-23 19:03:00,
2013-02-23 13:08:00,47.3,19.6,30.06,NNE,31,8.1,8.1,33,0.00,BKN,,0.00,WeatherDisplay:10.37,2013-02-23 19:08:00,
2013-02-23 13:13:00,47.3,20.3,30.06,North,11,6.9,6.9,34,0.00,BKN,,0.00,WeatherDisplay:10.37,2013-02-23 19:13:00,
2013-02-23 13:18:00,47.3,22.3,30.06,NNW,333,5.8,5.8,37,0.00,BKN,,0.00,WeatherDisplay:10.37,2013-02-23 19:18:00,
2013-02-23 13:23:00,47.7,22.0,30.03,North,3,8.1,8.1,36,0.00,BKN,,0.00,WeatherDisplay:10.37,2013-02-23 19:23:00,
2013-02-23 13:28:00,47.5,20.5,30.03,NNW,341,8.1,8.1,34,0.00,BKN,,0.00,WeatherDisplay:10.37,2013-02-23 19:28:00,
2013-02-23 13:33:00,47.3,20.3,30.03,ESE,102,4.6,4.6,34,0.00,BKN,,0.00,WeatherDisplay:10.37,2013-02-23 19:33:00,
2013-02-23 13:38:00,47.3,21.7,30.03,West,263,3.5,3.5,36,0.00,BKN,,0.00,WeatherDisplay:10.37,2013-02-23 19:38:00,
2013-02-23 13:43:00,47.7,20.6,30.03,NW,322,4.6,4.6,34,0.00,BKN,,0.00,WeatherDisplay:10.37,2013-02-23 19:43:00,
2013-02-23 13:48:00,47.7,20.6,30.03,South,178,3.5,3.5,34,0.00,BKN,,0.00,WeatherDisplay:10.37,2013-02-23 19:48:00,
2013-02-23 13:53:00,48.0,21.6,30.03,North,3,2.3,0.0,35,0.00,BKN,,0.00,WeatherDisplay:10.37,2013-02-23 19:53:00,
2013-02-23 13:58:00,48.2,22.5,30.03,NNW,341,5.8,5.8,36,0.00,BKN,,0.00,WeatherDisplay:10.37,2013-02-23 19:58:00,
2013-02-23 14:03:00,47.8,22.1,30.03,SSW,212,3.5,3.5,36,0.00,SCT,,0.00,WeatherDisplay:10.37,2013-02-23 20:03:00,
2013-02-23 14:08:00,48.2,22.5,30.00,NNW,331,3.5,4.0,36,0.00,SCT,,0.00,WeatherDisplay:10.37,2013-02-23 20:08:00,
2013-02-23 14:13:00,48.2,22.5,30.00,West,266,3.5,3.5,36,0.00,SCT,,0.00,WeatherDisplay:10.37,2013-02-23 20:13:00,
2013-02-23 14:18:00,48.6,22.1,30.00,North,357,5.8,5.8,35,0.00,SCT,,0.00,WeatherDisplay:10.37,2013-02-23 20:18:00,
2013-02-23 14:23:00,48.7,21.6,30.00,North,357,5.8,5.8,34,0.00,SCT,,0.00,WeatherDisplay:10.37,2013-02-23 20:23:00,
2013-02-23 14:28:00,48.7,22.3,30.00,North,353,3.5,3.5,35,0.00,SCT,,0.00,WeatherDisplay:10.37,2013-02-23 20:28:00,
2013-02-23 14:33:00,49.1,22.6,30.00,ENE,71,4.6,0.0,35,0.00,CLR,,0.00,WeatherDisplay:10.37,2013-02-23 20:33:00,
2013-02-23 14:38:00,49.1,23.3,30.00,North,7,3.1,3.1,36,0.00,CLR,,0.00,WeatherDisplay:10.37,2013-02-23 20:38:00,
2013-02-23 14:43:00,49.1,21.9,30.00,North,357,8.1,8.1,34,0.00,CLR,,0.00,WeatherDisplay:10.37,2013-02-23 20:43:00,
2013-02-23 14:48:00,49.3,22.1,30.00,NNE,21,3.5,3.5,34,0.00,CLR,,0.00,WeatherDisplay:10.37,2013-02-23 20:48:00,
2013-02-23 14:53:00,49.6,23.1,29.97,North,357,3.6,0.0,35,0.00,CLR,,0.00,WeatherDisplay:10.37,2013-02-23 20:53:00,
2013-02-23 14:59:00,49.8,22.5,29.97,North,353,3.5,3.5,34,0.00,CLR,,0.00,WeatherDisplay:10.37,2013-02-23 20:59:00,
2013-02-23 15:04:00,49.3,22.8,29.97,North,353,0.0,0.0,35,0.00,CLR,,0.00,WeatherDisplay:10.37,2013-02-23 21:04:00,
2013-02-23 15:09:00,49.8,23.2,29.97,North,353,3.5,3.5,35,0.00,CLR,,0.00,WeatherDisplay:10.37,2013-02-23 21:09:00,
2013-02-23 15:14:00,49.6,23.1,29.97,WNW,295,3.5,3.5,35,0.00,CLR,,0.00,WeatherDisplay:10.37,2013-02-23 21:14:00,
2013-02-23 15:19:00,50.0,24.1,29.97,West,266,3.5,3.5,36,0.00,CLR,,0.00,WeatherDisplay:10.37,2013-02-23 21:19:00,
2013-02-23 15:24:00,50.5,24.5,29.97,WSW,243,3.5,3.5,36,0.00,CLR,,0.00,WeatherDisplay:10.37,2013-02-23 21:24:00,
2013-02-23 15:29:00,50.2,24.2,29.97,WSW,244,3.5,0.0,36,0.00,CLR,,0.00,WeatherDisplay:10.37,2013-02-23 21:29:00,
2013-02-23 15:34:00,50.4,24.4,29.97,WSW,249,3.5,0.0,36,0.00,CLR,,0.00,WeatherDisplay:10.37,2013-02-23 21:34:00,
2013-02-23 15:39:00,50.5,24.5,29.97,WSW,249,2.2,0.0,36,0.00,CLR,,0.00,WeatherDisplay:10.37,2013-02-23 21:39:00,
2013-02-23 15:44:00,50.5,24.5,29.97,WSW,248,3.5,3.5,36,0.00,CLR,,0.00,WeatherDisplay:10.37,2013-02-23 21:44:00,
2013-02-23 15:49:00,50.7,24.7,29.97,WSW,248,3.5,3.5,36,0.00,CLR,,0.00,WeatherDisplay:10.37,2013-02-23 21:49:00,
2013-02-23 15:54:00,50.4,24.4,29.97,WSW,248,0.0,0.0,36,0.00,CLR,,0.00,WeatherDisplay:10.37,2013-02-23 21:54:00,
2013-02-23 15:59:00,50.2,24.2,29.97,WSW,248,0.0,0.0,36,0.00,CLR,,0.00,WeatherDisplay:10.37,2013-02-23 21:59:00,
2013-02-23 16:04:00,50.2,24.9,29.97,WSW,248,3.5,0.0,37,0.00,CLR,,0.00,WeatherDisplay:10.37,2013-02-23 22:04:00,
2013-02-23 16:09:00,50.2,24.2,29.97,WSW,248,3.5,3.5,36,0.00,CLR,,0.00,WeatherDisplay:10.37,2013-02-23 22:09:00,
2013-02-23 16:14:00,50.2,24.2,29.97,WSW,248,0.0,0.0,36,0.00,CLR,,0.00,WeatherDisplay:10.37,2013-02-23 22:14:00,
2013-02-23 16:19:00,50.2,24.9,29.97,WSW,248,2.3,0.0,37,0.00,CLR,,0.00,WeatherDisplay:10.37,2013-02-23 22:19:00,
2013-02-23 16:24:00,50.0,24.7,29.97,WSW,248,0.0,0.0,37,0.00,CLR,,0.00,WeatherDisplay:10.37,2013-02-23 22:24:00,
2013-02-23 16:29:00,50.2,24.9,29.97,WSW,248,2.3,0.0,37,0.00,CLR,,0.00,WeatherDisplay:10.37,2013-02-23 22:29:00,
2013-02-23 16:34:00,50.2,24.2,29.97,NW,320,0.0,0.0,36,0.00,CLR,,0.00,WeatherDisplay:10.37,2013-02-23 22:34:00,
2013-02-23 16:39:00,50.4,25.0,29.97,West,266,3.5,0.0,37,0.00,CLR,,0.00,WeatherDisplay:10.37,2013-02-23 22:39:00,
2013-02-23 16:44:00,50.4,25.0,29.97,West,266,2.3,0.0,37,0.00,CLR,,0.00,WeatherDisplay:10.37,2013-02-23 22:44:00,
2013-02-23 16:49:00,50.5,25.2,29.97,NNW,333,2.3,0.0,37,0.00,CLR,,0.00,WeatherDisplay:10.37,2013-02-23 22:49:00,
2013-02-23 16:54:00,50.7,24.7,29.97,North,9,3.5,3.5,36,0.00,CLR,,0.00,WeatherDisplay:10.37,2013-02-23 22:54:00,
2013-02-23 16:59:00,50.7,24.7,29.97,North,11,0.0,0.0,36,0.00,CLR,,0.00,WeatherDisplay:10.37,2013-02-23 22:59:00,
2013-02-23 17:04:00,50.7,24.7,29.97,West,273,3.5,0.0,36,0.00,CLR,,0.00,WeatherDisplay:10.37,2013-02-23 23:04:00,
2013-02-23 17:09:00,50.7,25.4,29.97,West,260,2.3,0.0,37,0.00,CLR,,0.00,WeatherDisplay:10.37,2013-02-23 23:09:00,
2013-02-23 17:14:00,50.5,24.5,29.97,West,260,2.3,0.0,36,0.00,CLR,,0.00,WeatherDisplay:10.37,2013-02-23 23:14:00,
2013-02-23 17:19:00,50.4,24.4,29.97,West,279,0.0,0.0,36,0.00,CLR,,0.00,WeatherDisplay:10.37,2013-02-23 23:19:00,
2013-02-23 17:24:00,50.4,25.0,29.97,North,0,0.0,0.0,37,0.00,CLR,,0.00,WeatherDisplay:10.37,2013-02-23 23:24:00,
2013-02-23 17:29:00,50.2,24.2,29.97,North,0,0.0,0.0,36,0.00,CLR,,0.00,WeatherDisplay:10.37,2013-02-23 23:29:00,
2013-02-23 17:34:00,50.0,24.7,29.97,North,0,0.0,0.0,37,0.00,CLR,,0.00,WeatherDisplay:10.37,2013-02-23 23:34:00,
2013-02-23 17:39:00,49.8,24.6,29.97,North,0,2.7,0.0,37,0.00,CLR,,0.00,WeatherDisplay:10.37,2013-02-23 23:39:00,
2013-02-23 17:44:00,49.6,24.4,29.97,North,357,2.3,0.0,37,0.00,CLR,,0.00,WeatherDisplay:10.37,2013-02-23 23:44:00,
2013-02-23 17:49:00,49.5,24.2,29.97,North,3,0.0,0.0,37,0.00,CLR,,0.00,WeatherDisplay:10.37,2013-02-23 23:49:00,
2013-02-23 17:54:00,49.1,23.9,29.97,North,3,2.3,0.0,37,0.00,CLR,,0.00,WeatherDisplay:10.37,2013-02-23 23:54:00,
2013-02-23 17:59:00,49.1,23.9,29.97,North,3,0.0,0.0,37,0.00,CLR,,0.00,WeatherDisplay:10.37,2013-02-23 23:59:00,
2013-02-23 18:04:00,48.6,23.4,29.97,North,3,2.7,0.0,37,0.00,CLR,,0.00,WeatherDisplay:10.37,2013-02-24 00:04:00,
2013-02-23 18:09:00,48.6,24.1,29.97,North,3,2.3,0.0,38,0.00,CLR,,0.00,WeatherDisplay:10.37,2013-02-24 00:09:00,
2013-02-23 18:14:00,48.4,23.9,29.97,North,3,0.0,0.0,38,0.00,CLR,,0.00,WeatherDisplay:10.37,2013-02-24 00:14:00,
2013-02-23 18:19:00,47.8,23.4,29.97,North,3,0.0,0.0,38,0.00,CLR,,0.00,WeatherDisplay:10.37,2013-02-24 00:19:00,
2013-02-23 18:24:00,47.5,23.7,29.97,North,3,0.0,0.0,39,0.00,CLR,,0.00,WeatherDisplay:10.37,2013-02-24 00:24:00,
2013-02-23 18:29:00,47.3,23.6,29.97,North,3,0.0,0.0,39,0.00,CLR,,0.00,WeatherDisplay:10.37,2013-02-24 00:29:00,
2013-02-23 18:34:00,46.9,23.2,29.97,North,3,0.0,0.0,39,0.00,CLR,,0.00,WeatherDisplay:10.37,2013-02-24 00:34:00,
2013-02-23 18:39:00,46.6,23.5,29.97,North,3,0.0,0.0,40,0.00,CLR,,0.00,WeatherDisplay:10.37,2013-02-24 00:39:00,
2013-02-23 18:44:00,46.6,23.5,29.97,North,3,0.0,0.0,40,0.00,CLR,,0.00,WeatherDisplay:10.37,2013-02-24 00:44:00,
2013-02-23 18:49:00,46.2,23.2,29.97,North,3,0.0,0.0,40,0.00,CLR,,0.00,WeatherDisplay:10.37,2013-02-24 00:49:00,
2013-02-23 18:54:00,46.0,23.0,29.97,North,3,0.0,0.0,40,0.00,CLR,,0.00,WeatherDisplay:10.37,2013-02-24 00:54:00,
2013-02-23 18:59:00,45.7,22.7,29.97,North,3,0.0,0.0,40,0.00,CLR,,0.00,WeatherDisplay:10.37,2013-02-24 00:59:00,
2013-02-23 19:04:00,45.5,23.1,29.97,North,3,0.0,0.0,41,0.00,CLR,,0.00,WeatherDisplay:10.37,2013-02-24 01:04:00,
2013-02-23 19:09:00,45.1,22.8,29.97,North,3,0.0,0.0,41,0.00,CLR,,0.00,WeatherDisplay:10.37,2013-02-24 01:09:00,
2013-02-23 19:14:00,44.8,22.5,29.97,North,3,0.0,0.0,41,0.00,CLR,,0.00,WeatherDisplay:10.37,2013-02-24 01:14:00,
2013-02-23 19:19:00,44.6,22.9,29.97,North,3,0.0,0.0,42,0.00,CLR,,0.00,WeatherDisplay:10.37,2013-02-24 01:19:00,
2013-02-23 19:24:00,44.2,23.1,29.97,North,3,0.0,0.0,43,0.00,CLR,,0.00,WeatherDisplay:10.37,2013-02-24 01:24:00,
2013-02-23 19:29:00,44.1,23.0,29.97,North,3,0.0,0.0,43,0.00,CLR,,0.00,WeatherDisplay:10.37,2013-02-24 01:29:00,
2013-02-23 19:34:00,43.3,22.9,29.97,North,3,0.0,0.0,44,0.00,CLR,,0.00,WeatherDisplay:10.37,2013-02-24 01:34:00,
2013-02-23 19:39:00,42.8,22.9,30.00,North,3,0.0,0.0,45,0.00,CLR,,0.00,WeatherDisplay:10.37,2013-02-24 01:39:00,
2013-02-23 19:44:00,42.8,22.9,30.00,North,3,0.0,0.0,45,0.00,CLR,,0.00,WeatherDisplay:10.37,2013-02-24 01:44:00,
2013-02-23 19:49:00,43.0,23.6,30.00,North,3,0.0,0.0,46,0.00,CLR,,0.00,WeatherDisplay:10.37,2013-02-24 01:49:00,
2013-02-23 19:54:00,42.4,23.1,30.00,North,3,0.0,0.0,46,0.00,CLR,,0.00,WeatherDisplay:10.37,2013-02-24 01:54:00,
2013-02-23 19:59:00,42.8,23.9,30.00,North,3,0.0,0.0,47,0.00,CLR,,0.00,WeatherDisplay:10.37,2013-02-24 01:59:00,
2013-02-23 20:04:00,42.6,23.8,30.00,North,3,0.0,0.0,47,0.00,CLR,,0.00,WeatherDisplay:10.37,2013-02-24 02:04:00,
2013-02-23 20:09:00,41.9,23.6,30.00,North,3,0.0,0.0,48,0.00,CLR,,0.00,WeatherDisplay:10.37,2013-02-24 02:09:00,
2013-02-23 20:14:00,41.2,23.4,30.00,North,3,0.0,0.0,49,0.00,CLR,,0.00,WeatherDisplay:10.37,2013-02-24 02:14:00,
2013-02-23 20:19:00,40.6,23.4,30.00,North,3,0.0,0.0,50,0.00,CLR,,0.00,WeatherDisplay:10.37,2013-02-24 02:19:00,
2013-02-23 20:24:00,40.5,23.7,30.00,North,3,0.0,0.0,51,0.00,CLR,,0.00,WeatherDisplay:10.37,2013-02-24 02:24:00,
2013-02-23 20:29:00,39.7,23.5,30.00,North,3,0.0,0.0,52,0.00,CLR,,0.00,WeatherDisplay:10.37,2013-02-24 02:29:00,
2013-02-23 20:35:00,39.4,23.7,30.00,North,3,0.0,0.0,53,0.00,CLR,,0.00,WeatherDisplay:10.37,2013-02-24 02:35:00,
2013-02-23 20:40:00,39.2,23.5,30.00,North,3,0.0,0.0,53,0.00,CLR,,0.00,WeatherDisplay:10.37,2013-02-24 02:40:00,
2013-02-23 20:45:00,39.2,23.9,30.00,North,3,0.0,0.0,54,0.00,CLR,,0.00,WeatherDisplay:10.37,2013-02-24 02:45:00,
2013-02-23 20:50:00,39.3,24.0,30.00,North,3,0.0,0.0,54,0.00,CLR,,0.00,WeatherDisplay:10.37,2013-02-24 02:50:00,
2013-02-23 20:55:00,39.7,24.4,30.00,North,3,0.0,0.0,54,0.00,CLR,,0.00,WeatherDisplay:10.37,2013-02-24 02:55:00,
2013-02-23 21:00:00,39.6,24.3,30.00,North,3,0.0,0.0,54,0.00,CLR,,0.00,WeatherDisplay:10.37,2013-02-24 03:00:00,
2013-02-23 21:05:00,39.2,23.9,30.00,North,3,0.0,0.0,54,0.00,CLR,,0.00,WeatherDisplay:10.37,2013-02-24 03:05:00,
2013-02-23 21:10:00,39.2,23.9,30.00,North,3,0.0,0.0,54,0.00,CLR,,0.00,WeatherDisplay:10.37,2013-02-24 03:10:00,
2013-02-23 21:15:00,39.4,24.5,30.00,North,3,0.0,0.0,55,0.00,CLR,,0.00,WeatherDisplay:10.37,2013-02-24 03:15:00,
2013-02-23 21:20:00,39.0,24.2,30.00,North,3,0.0,0.0,55,0.00,CLR,,0.00,WeatherDisplay:10.37,2013-02-24 03:20:00,
2013-02-23 21:25:00,38.8,24.0,30.00,North,3,0.0,0.0,55,0.00,CLR,,0.00,WeatherDisplay:10.37,2013-02-24 03:25:00,
2013-02-23 21:30:00,39.2,24.8,30.00,North,3,0.0,0.0,56,0.00,CLR,,0.00,WeatherDisplay:10.37,2013-02-24 03:30:00,
2013-02-23 21:35:00,38.7,24.3,30.00,North,3,0.0,0.0,56,0.00,CLR,,0.00,WeatherDisplay:10.37,2013-02-24 03:35:00,
2013-02-23 21:40:00,38.5,24.1,30.00,North,3,0.0,0.0,56,0.00,CLR,,0.00,WeatherDisplay:10.37,2013-02-24 03:40:00,
2013-02-23 21:45:00,38.3,24.3,30.00,North,3,0.0,0.0,57,0.00,CLR,,0.00,WeatherDisplay:10.37,2013-02-24 03:45:00,
2013-02-23 21:50:00,37.9,24.0,30.00,North,3,0.0,0.0,57,0.00,CLR,,0.00,WeatherDisplay:10.37,2013-02-24 03:50:00,
2013-02-23 21:55:00,37.9,24.5,30.00,North,3,0.0,0.0,58,0.00,CLR,,0.00,WeatherDisplay:10.37,2013-02-24 03:55:00,
2013-02-23 22:00:00,37.8,24.7,30.00,North,3,0.0,0.0,59,0.00,CLR,,0.00,WeatherDisplay:10.37,2013-02-24 04:00:00,
2013-02-23 22:05:00,37.6,24.5,30.00,North,3,0.0,0.0,59,0.00,CLR,,0.00,WeatherDisplay:10.37,2013-02-24 04:05:00,
2013-02-23 22:10:00,37.4,24.8,29.97,North,3,0.0,0.0,60,0.00,CLR,,0.00,WeatherDisplay:10.37,2013-02-24 04:10:00,
2013-02-23 22:15:00,37.4,24.8,29.97,North,3,0.0,0.0,60,0.00,CLR,,0.00,WeatherDisplay:10.37,2013-02-24 04:15:00,
2013-02-23 22:20:00,37.6,25.3,29.97,North,4,0.0,0.0,61,0.00,CLR,,0.00,WeatherDisplay:10.37,2013-02-24 04:20:00,
2013-02-23 22:25:00,37.6,25.3,29.97,North,5,0.0,0.0,61,0.00,CLR,,0.00,WeatherDisplay:10.37,2013-02-24 04:25:00,
2013-02-23 22:30:00,37.6,24.9,29.97,North,5,0.0,0.0,60,0.00,CLR,,0.00,WeatherDisplay:10.37,2013-02-24 04:30:00,
2013-02-23 22:35:00,37.4,24.8,29.97,North,5,0.0,0.0,60,0.00,CLR,,0.00,WeatherDisplay:10.37,2013-02-24 04:35:00,
2013-02-23 22:40:00,37.4,24.8,29.97,North,5,0.0,0.0,60,0.00,CLR,,0.00,WeatherDisplay:10.37,2013-02-24 04:40:00,
2013-02-23 22:45:00,37.4,24.8,29.97,North,5,0.0,0.0,60,0.00,CLR,,0.00,WeatherDisplay:10.37,2013-02-24 04:45:00,
2013-02-23 22:50:00,37.4,24.8,29.97,North,5,0.0,0.0,60,0.00,CLR,,0.00,WeatherDisplay:10.37,2013-02-24 04:50:00,
2013-02-23 22:55:00,37.8,25.1,29.97,North,5,0.0,0.0,60,0.00,CLR,,0.00,WeatherDisplay:10.37,2013-02-24 04:55:00,
2013-02-23 23:00:00,37.6,24.5,29.97,North,5,0.0,0.0,59,0.00,CLR,,0.00,WeatherDisplay:10.37,2013-02-24 05:00:00,
2013-02-23 23:05:00,37.6,24.5,29.97,North,5,0.0,0.0,59,0.00,CLR,,0.00,WeatherDisplay:10.37,2013-02-24 05:05:00,
2013-02-23 23:10:00,37.8,24.7,29.94,North,5,0.0,0.0,59,0.00,CLR,,0.00,WeatherDisplay:10.37,2013-02-24 05:10:00,
2013-02-23 23:15:00,37.6,24.5,29.94,North,5,0.0,0.0,59,0.00,CLR,,0.00,WeatherDisplay:10.37,2013-02-24 05:15:00,
2013-02-23 23:20:00,37.4,24.0,29.94,North,5,0.0,0.0,58,0.00,CLR,,0.00,WeatherDisplay:10.37,2013-02-24 05:20:00,
2013-02-23 23:25:00,37.0,24.0,29.94,North,5,0.0,0.0,59,0.00,CLR,,0.00,WeatherDisplay:10.37,2013-02-24 05:25:00,
2013-02-23 23:30:00,37.0,24.0,29.94,North,5,0.0,0.0,59,0.00,CLR,,0.00,WeatherDisplay:10.37,2013-02-24 05:30:00,
2013-02-23 23:35:00,37.0,24.0,29.97,North,5,0.0,0.0,59,0.00,CLR,,0.00,WeatherDisplay:10.37,2013-02-24 05:35:00,
2013-02-23 23:40:00,37.2,24.2,29.97,North,5,0.0,0.0,59,0.00,CLR,,0.00,WeatherDisplay:10.37,2013-02-24 05:40:00,
2013-02-23 23:45:00,37.6,24.5,29.97,North,5,0.0,0.0,59,0.00,CLR,,0.00,WeatherDisplay:10.37,2013-02-24 05:45:00,
2013-02-23 23:50:00,37.4,24.4,29.97,North,5,0.0,0.0,59,0.00,CLR,,0.00,WeatherDisplay:10.37,2013-02-24 05:50:00,
2013-02-23 23:55:00,37.0,24.0,29.94,North,5,0.0,0.0,59,0.00,CLR,,0.00,WeatherDisplay:10.37,2013-02-24 05:55:00,